TimeCDT,TemperatureF,Dew PointF,Humidity,Sea Level PressureIn,VisibilityMPH,Wind Direction,Wind SpeedMPH,Gust SpeedMPH,PrecipitationIn,Events,Conditions,WindDirDegrees,DateUTC
12:18 AM,66.2,64.4,94,29.89,9.0,SW,4.6,-,N/A,,Partly Cloudy,220,2013-07-27 05:18:00
12:51 AM,66.2,64.4,94,29.89,6.0,WSW,5.8,-,N/A,,Mostly Cloudy,240,2013-07-27 05:51:00
12:53 AM,66.0,64.0,93,29.88,6.0,WSW,4.6,-,N/A,,Mostly Cloudy,240,2013-07-27 05:53:00
1:17 AM,66.2,64.4,94,29.88,4.0,SW,4.6,-,N/A,,Overcast,230,2013-07-27 06:17:00
1:53 AM,64.0,63.0,96,29.86,3.0,WSW,3.5,-,N/A,,Scattered Clouds,240,2013-07-27 06:53:00
2:25 AM,64.4,62.6,94,29.87,1.8,SSW,3.5,-,N/A,,Scattered Clouds,200,2013-07-27 07:25:00
2:32 AM,64.4,62.6,94,29.87,0.8,SSW,3.5,-,N/A,,Mist,200,2013-07-27 07:32:00
2:46 AM,64.4,62.6,94,29.87,0.2,Calm,Calm,-,N/A,Fog,Fog,0,2013-07-27 07:46:00
2:53 AM,63.0,62.1,97,29.86,0.2,Calm,Calm,-,N/A,Fog,Fog,0,2013-07-27 07:53:00
3:11 AM,62.6,60.8,94,29.87,0.5,South,3.5,-,N/A,Fog,Fog,180,2013-07-27 08:11:00
3:35 AM,60.8,60.8,100,29.87,1.0,Calm,Calm,-,N/A,,Mist,0,2013-07-27 08:35:00
3:53 AM,61.0,60.1,97,29.86,0.5,West,3.5,-,N/A,Fog,Fog,270,2013-07-27 08:53:00
3:58 AM,60.8,59.0,94,29.87,1.8,West,3.5,-,N/A,,Partly Cloudy,260,2013-07-27 08:58:00
4:00 AM,60.8,59.0,94,29.87,3.0,West,3.5,-,N/A,,Partly Cloudy,260,2013-07-27 09:00:00
4:53 AM,59.0,57.9,96,29.87,10.0,West,3.5,-,N/A,,Partly Cloudy,270,2013-07-27 09:53:00
5:53 AM,57.9,55.9,93,29.88,9.0,West,4.6,-,N/A,,Clear,280,2013-07-27 10:53:00
6:53 AM,61.0,57.9,90,29.88,10.0,West,4.6,-,N/A,,Partly Cloudy,280,2013-07-27 11:53:00
7:53 AM,66.9,61.0,81,29.88,10.0,Variable,6.9,-,N/A,,Scattered Clouds,0,2013-07-27 12:53:00
8:53 AM,66.0,60.1,81,29.88,7.0,NNW,8.1,17.3,0.01,Rain,Light Rain,330,2013-07-27 13:53:00
9:23 AM,66.2,60.8,83,29.88,10.0,Variable,5.8,-,0.00,,Overcast,0,2013-07-27 14:23:00
9:32 AM,66.2,60.8,83,29.88,10.0,NNW,8.1,-,0.00,,Mostly Cloudy,340,2013-07-27 14:32:00
9:53 AM,66.9,60.1,79,29.87,10.0,North,8.1,-,0.00,,Overcast,350,2013-07-27 14:53:00
10:48 AM,66.2,59.0,78,29.89,10.0,NNW,11.5,-,N/A,,Mostly Cloudy,330,2013-07-27 15:48:00
10:53 AM,66.0,59.0,78,29.88,10.0,NNW,11.5,-,N/A,,Mostly Cloudy,340,2013-07-27 15:53:00
11:06 AM,66.2,57.2,73,29.88,10.0,NW,11.5,17.3,N/A,,Mostly Cloudy,310,2013-07-27 16:06:00
11:53 AM,68.0,57.9,70,29.88,10.0,NW,8.1,-,N/A,,Overcast,320,2013-07-27 16:53:00
12:53 PM,66.0,55.9,70,29.88,10.0,NNW,9.2,-,N/A,,Overcast,330,2013-07-27 17:53:00
1:09 PM,66.2,55.4,68,29.89,10.0,WNW,9.2,-,N/A,,Overcast,300,2013-07-27 18:09:00
1:53 PM,64.9,55.0,70,29.88,10.0,NNW,10.4,17.3,N/A,,Mostly Cloudy,330,2013-07-27 18:53:00
2:02 PM,64.4,53.6,68,29.89,10.0,NNW,11.5,17.3,N/A,,Mostly Cloudy,330,2013-07-27 19:02:00
2:10 PM,64.4,53.6,68,29.89,10.0,NNW,10.4,17.3,N/A,,Overcast,330,2013-07-27 19:10:00
2:53 PM,66.9,53.1,61,29.89,10.0,NNW,9.2,17.3,N/A,,Mostly Cloudy,330,2013-07-27 19:53:00
3:53 PM,64.9,50.0,58,29.89,10.0,NW,10.4,18.4,N/A,,Overcast,320,2013-07-27 20:53:00
4:53 PM,66.0,48.0,52,29.89,10.0,WNW,12.7,-,N/A,,Mostly Cloudy,300,2013-07-27 21:53:00
5:53 PM,63.0,48.9,60,29.90,10.0,NNW,9.2,-,N/A,,Overcast,330,2013-07-27 22:53:00
6:53 PM,62.1,46.9,58,29.92,10.0,NW,6.9,-,N/A,,Overcast,310,2013-07-27 23:53:00
7:53 PM,61.0,46.9,60,29.91,10.0,Variable,5.8,-,N/A,,Overcast,0,2013-07-28 00:53:00
8:53 PM,60.1,46.0,60,29.92,10.0,West,6.9,-,N/A,,Overcast,270,2013-07-28 01:53:00
9:53 PM,59.0,46.0,62,29.93,10.0,West,5.8,-,N/A,,Overcast,260,2013-07-28 02:53:00
10:53 PM,55.9,46.0,69,29.92,10.0,WSW,5.8,-,N/A,,Partly Cloudy,250,2013-07-28 03:53:00
11:53 PM,57.0,46.0,67,29.91,10.0,SW,6.9,-,N/A,,Overcast,230,2013-07-28 04:53:00